Weather History for Salem, IL

Change the Weather History Date:

Monday, November 28, 2011

  Actual Average Record
Temperature  
Mean Temperature 39 °F -  
Max Temperature 41 °F 47 °F 70 °F (1990)
Min Temperature 37 °F 30 °F 12 °F (1977)
Degree Days  
Heating Degree Days 26    
Moisture  
Dew Point 36 °F    
Average Humidity 93    
Maximum Humidity 100    
Minimum Humidity 81    
Precipitation  
Precipitation 0.05 in - - ()
Sea Level Pressure  
Sea Level Pressure 29.98 in    
Wind  
Wind Speed 16 mph (North)    
Max Wind Speed 28 mph    
Max Gust Speed 33 mph    
Visibility 9 miles    
Events Rain    
Averages and records for this station are not official NWS values.
T = Trace of Precipitation, MM = Missing Value Source: NWS Daily Summary

Daily Weather History Graph

Daily Weather History Graph

Search for Another Location

Airport:

Trip Planner

Search our weather history database for the weather conditions in past years. The results will help you decide how hot, cold, wet, or windy it might be!

Date:

Astronomy

Nov. 28, 2011 Rise Set
Actual Time 6:51 AM CST 4:35 PM CST
Civil Twilight 6:22 AM CST 5:04 PM CST
Nautical Twilight 5:49 AM CST 5:37 PM CST
Astronomical Twilight 5:17 AM CST 6:09 PM CST
Moon 10:01 AM CST (11/28) 8:21 PM CST (11/28)
Length of Visible Light 10h 42m
Length of Day
9h 44m
Waxing Crescent, 16% of the Moon is Illuminated
Nov 28
Waxing Crescent
Dec 2
First Quarter
Dec 10
Full
Dec 17
Last Quarter
Dec 24
New

Hourly Weather History & Observations

Time (CST) Temp. Windchill Dew Point Humidity Pressure Visibility Wind Dir Wind Speed Gust Speed Precip Events Conditions
12:15 AM 37.4 °F 29.3 °F 35.6 °F 93% 30.09 in 10.0 mi North 12.7 mph 20.7 mph N/A   Overcast
12:35 AM 37.4 °F 27.8 °F 35.6 °F 93% 30.08 in 10.0 mi North 17.3 mph 21.9 mph N/A   Overcast
12:55 AM 37.4 °F 29.3 °F 35.6 °F 93% 30.09 in 10.0 mi North 12.7 mph - N/A   Overcast
1:15 AM 37.4 °F 28.5 °F 35.6 °F 93% 30.08 in 5.0 mi North 15.0 mph - N/A   Overcast
1:35 AM 37.4 °F 29.3 °F 35.6 °F 93% 30.07 in 4.0 mi North 12.7 mph - N/A   Overcast
1:55 AM 37.4 °F 28.9 °F 35.6 °F 93% 30.08 in 7.0 mi North 13.8 mph - N/A   Overcast
2:15 AM 37.4 °F 29.3 °F 35.6 °F 93% 30.08 in 10.0 mi North 12.7 mph - N/A   Overcast
2:35 AM 37.4 °F 28.9 °F 35.6 °F 93% 30.06 in 10.0 mi North 13.8 mph - N/A   Overcast
2:55 AM 37.4 °F 28.2 °F 35.6 °F 93% 30.06 in 10.0 mi North 16.1 mph 20.7 mph N/A   Overcast
3:15 AM 37.4 °F 28.5 °F 35.6 °F 93% 30.06 in 10.0 mi North 15.0 mph 18.4 mph N/A   Overcast
3:35 AM 37.4 °F 28.5 °F 35.6 °F 93% 30.06 in 10.0 mi North 15.0 mph 20.7 mph N/A Rain Light Rain
3:55 AM 37.4 °F 30.3 °F 35.6 °F 93% 30.07 in 10.0 mi North 10.4 mph - N/A   Overcast
4:15 AM 37.4 °F 30.8 °F 35.6 °F 93% 30.07 in 10.0 mi North 9.2 mph - N/A   Overcast
4:35 AM 37.4 °F 29.8 °F 35.6 °F 93% 30.06 in 10.0 mi North 11.5 mph - N/A   Overcast
4:55 AM 37.4 °F 29.8 °F 35.6 °F 93% 30.06 in 10.0 mi North 11.5 mph 18.4 mph N/A   Overcast
5:15 AM 37.4 °F 29.3 °F 35.6 °F 93% 30.05 in 10.0 mi North 12.7 mph - N/A   Overcast
5:35 AM 37.4 °F 29.8 °F 35.6 °F 93% 30.05 in 10.0 mi North 11.5 mph 17.3 mph N/A   Overcast
5:55 AM 37.4 °F 29.3 °F 35.6 °F 93% 30.06 in 10.0 mi North 12.7 mph - N/A   Overcast
6:15 AM 37.4 °F 29.8 °F 35.6 °F 93% 30.06 in 10.0 mi North 11.5 mph - N/A   Overcast
6:35 AM 37.4 °F 28.9 °F 35.6 °F 93% 30.05 in 10.0 mi North 13.8 mph - N/A   Overcast
6:55 AM 37.4 °F 29.3 °F 35.6 °F 93% 30.05 in 10.0 mi North 12.7 mph - N/A   Overcast
7:15 AM 37.4 °F 29.3 °F 35.6 °F 93% 30.05 in 10.0 mi North 12.7 mph - N/A   Overcast
7:35 AM 37.4 °F 29.3 °F 35.6 °F 93% 30.05 in 10.0 mi North 12.7 mph - N/A   Overcast
7:55 AM 37.4 °F 29.3 °F 35.6 °F 93% 30.06 in 10.0 mi North 12.7 mph - N/A   Overcast
8:15 AM 37.4 °F 28.2 °F 35.6 °F 93% 30.06 in 10.0 mi North 16.1 mph - N/A   Overcast
8:35 AM 37.4 °F 28.5 °F 35.6 °F 93% 30.04 in 10.0 mi North 15.0 mph 19.6 mph N/A   Overcast
8:55 AM 37.4 °F 28.2 °F 35.6 °F 93% 30.04 in 10.0 mi North 16.1 mph - N/A Rain Light Rain
9:15 AM 37.4 °F 28.5 °F 35.6 °F 93% 30.03 in 10.0 mi North 15.0 mph - N/A Rain Light Rain
9:35 AM 37.4 °F 27.5 °F 35.6 °F 93% 30.03 in 10.0 mi North 18.4 mph 21.9 mph N/A   Overcast
9:55 AM 37.4 °F 28.5 °F 35.6 °F 93% 30.02 in 7.0 mi North 15.0 mph 21.9 mph N/A   Light Drizzle
10:15 AM 37.4 °F 28.9 °F 35.6 °F 93% 30.02 in 10.0 mi North 13.8 mph - N/A   Overcast
10:35 AM 37.4 °F 26.9 °F 35.6 °F 93% 30.00 in 10.0 mi North 20.7 mph 24.2 mph N/A   Overcast
10:55 AM 39.2 °F 29.8 °F 35.6 °F 87% 29.99 in 10.0 mi North 18.4 mph - N/A   Overcast
11:15 AM 39.2 °F 29.8 °F 35.6 °F 87% 29.98 in 10.0 mi North 18.4 mph 24.2 mph N/A   Overcast
11:35 AM 39.2 °F 29.8 °F 35.6 °F 87% 29.96 in 10.0 mi North 18.4 mph 25.3 mph N/A   Overcast
11:55 AM 39.2 °F 29.8 °F 35.6 °F 87% 29.95 in 10.0 mi North 18.4 mph 25.3 mph N/A   Overcast
12:15 PM 39.2 °F 28.7 °F 35.6 °F 87% 29.94 in 10.0 mi North 23.0 mph 28.8 mph N/A   Overcast
12:35 PM 41.0 °F 31.6 °F 35.6 °F 81% 29.93 in 10.0 mi North 20.7 mph 27.6 mph N/A   Overcast
12:55 PM 39.2 °F 29.6 °F 35.6 °F 87% 29.91 in 10.0 mi North 19.6 mph 24.2 mph N/A   Overcast
1:15 PM 41.0 °F 32.5 °F 35.6 °F 81% 29.90 in 10.0 mi North 17.3 mph 25.3 mph N/A   Overcast
1:35 PM 39.2 °F 29.3 °F 35.6 °F 87% 29.89 in 10.0 mi North 20.7 mph 29.9 mph N/A   Overcast
1:55 PM 39.2 °F 29.0 °F 35.6 °F 87% 29.88 in 10.0 mi North 21.9 mph 29.9 mph N/A   Overcast
2:15 PM 37.4 °F 25.4 °F 35.6 °F 93% 29.85 in 3.0 mi North 27.6 mph 32.2 mph N/A Rain Rain
2:35 PM 37.4 °F 26.9 °F 37.4 °F 100% 29.83 in 7.0 mi North 20.7 mph 32.2 mph 0.01 in Rain Light Rain
2:55 PM 37.4 °F 26.6 °F 37.4 °F 100% 29.83 in 5.0 mi North 21.9 mph 33.4 mph 0.01 in   Drizzle
3:15 PM 37.4 °F 26.4 °F 37.4 °F 100% 29.83 in 2.5 mi North 23.0 mph 32.2 mph N/A Rain Light Rain
3:35 PM 37.4 °F 25.9 °F 37.4 °F 100% 29.82 in 2.0 mi North 25.3 mph 33.4 mph N/A Rain Light Rain
3:55 PM 37.4 °F 26.6 °F 37.4 °F 100% 29.84 in 2.5 mi North 21.9 mph 29.9 mph 0.01 in Rain Rain
4:15 PM 37.4 °F 26.9 °F 37.4 °F 100% 29.83 in 1.5 mi North 20.7 mph 28.8 mph 0.02 in Rain Light Rain
4:35 PM 37.4 °F 26.6 °F 37.4 °F 100% 29.81 in 7.0 mi North 21.9 mph 32.2 mph 0.02 in Rain Light Rain
4:55 PM 37.4 °F 27.5 °F 37.4 °F 100% 29.83 in 10.0 mi North 18.4 mph 31.1 mph 0.02 in   Overcast
5:15 PM 37.4 °F 26.4 °F 37.4 °F 100% 29.80 in 10.0 mi North 23.0 mph 29.9 mph N/A   Overcast
5:35 PM 37.4 °F 26.6 °F 37.4 °F 100% 29.81 in 10.0 mi North 21.9 mph 29.9 mph N/A Rain Light Rain
5:55 PM 39.2 °F 28.7 °F 37.4 °F 93% 29.79 in 10.0 mi North 23.0 mph 27.6 mph N/A Rain Light Rain
6:15 PM 39.2 °F 28.0 °F 37.4 °F 93% 29.76 in 5.0 mi North 26.5 mph 33.4 mph 0.01 in Rain Rain
6:35 PM 39.2 °F 30.5 °F 39.2 °F 100% 29.80 in 5.0 mi NNE 16.1 mph 32.2 mph 0.03 in Rain Rain
6:55 PM 39.2 °F 29.6 °F 39.2 °F 100% 29.79 in 5.0 mi North 19.6 mph 28.8 mph 0.06 in Rain Rain
7:15 PM 39.2 °F 29.0 °F 39.2 °F 100% 29.80 in 2.5 mi NNE 21.9 mph 29.9 mph 0.04 in   Unknown
7:35 PM 39.2 °F 27.0 °F 39.2 °F 100% 29.75 in 5.0 mi North 32.2 mph 39.1 mph N/A Rain Light Rain
7:55 PM 41.0 °F 31.6 °F 41.0 °F 100% 29.78 in 10.0 mi NNE 20.7 mph 34.5 mph 0.06 in Rain Light Rain
8:15 PM 41.0 °F 31.6 °F 41.0 °F 100% 29.78 in 7.0 mi NNE 20.7 mph 28.8 mph 0.01 in Rain Light Rain
8:35 PM 41.0 °F 31.4 °F 41.0 °F 100% 29.79 in 3.0 mi NNE 21.9 mph 28.8 mph 0.04 in Rain Light Rain
8:55 PM 41.0 °F 31.4 °F 41.0 °F 100% 29.77 in 5.0 mi North 21.9 mph 27.6 mph 0.07 in Rain Rain
9:15 PM 39.2 °F 27.6 °F 39.2 °F 100% 29.73 in 5.0 mi North 28.8 mph 39.1 mph 0.02 in Rain Light Rain
9:35 PM 39.2 °F 29.6 °F 39.2 °F 100% 29.74 in 10.0 mi North 19.6 mph 34.5 mph 0.02 in Rain Rain
9:55 PM 39.2 °F 29.6 °F 39.2 °F 100% 29.79 in 10.0 mi NNE 19.6 mph 24.2 mph 0.02 in Rain Rain
10:15 PM 39.2 °F 29.3 °F 39.2 °F 100% 29.77 in 2.5 mi North 20.7 mph 27.6 mph 0.04 in Rain Heavy Rain
10:35 PM 39.2 °F 28.7 °F 39.2 °F 100% 29.74 in 2.5 mi North 23.0 mph 31.1 mph 0.09 in Rain Rain
10:55 PM 39.2 °F 30.5 °F 39.2 °F 100% 29.76 in 3.0 mi North 16.1 mph 27.6 mph 0.12 in Rain Light Rain
11:15 PM 39.2 °F 29.8 °F 39.2 °F 100% 29.77 in 2.5 mi NNE 18.4 mph 24.2 mph 0.04 in   Overcast
11:35 PM 39.2 °F 29.3 °F 39.2 °F 100% 29.76 in 3.0 mi North 20.7 mph 27.6 mph 0.08 in   Overcast
11:55 PM 39.2 °F 29.0 °F 39.2 °F 100% 29.74 in 5.0 mi North 21.9 mph 29.9 mph N/A Rain Rain